Weather History for KCNK - November, 2013

Change the Weather History Date:

Friday, November 15, 2013

  Actual Average Record
Temperature  
Mean Temperature 42 °F 42 °F  
Max Temperature 59 °F 53 °F 77 °F (1952)
Min Temperature 24 °F 31 °F 6 °F (1940)
Degree Days  
Heating Degree Days 23 23  
Month to date heating degree days 286 290  
Since 1 July heating degree days 630 681  
Cooling Degree Days 0 0  
Month to date cooling degree days 0 0  
Year to date cooling degree days 1359 1348  
Moisture  
Dew Point 35 °F    
Average Humidity 68    
Maximum Humidity 92    
Minimum Humidity 43    
Precipitation  
Precipitation 0.00 in 0.03 in 1.23 in (1961)
Month to date precipitation 1.09 0.63  
Year to date precipitation 26.59 26.56  
Snow  
Snow 0.00 in 0.10 in 1.90 in (1988)
Month to date snowfall 0.0 0.8  
Year to date snowfall 20.3 14.7  
Since 1 July snowfall 0.0 1.0  
Snow Depth 0.00 in    
Sea Level Pressure  
Sea Level Pressure 29.76 in    
Wind  
Wind Speed 11 mph (SSE)    
Max Wind Speed 26 mph    
Max Gust Speed 33 mph    
Visibility 10 miles    
Events      
T = Trace of Precipitation, MM = Missing Value Source: NWS Daily Summary

Daily Weather History Graph

Daily Weather History Graph

Search for Another Location

Airport or City:

Trip Planner

Search our weather history database for the weather conditions in past years. The results will help you decide how hot, cold, wet, or windy it might be!

Date:

Astronomy

Nov. 15, 2013 Rise Set
Actual Time 7:15 AM CST 5:15 PM CST
Civil Twilight 6:46 AM CST 5:43 PM CST
Nautical Twilight 6:13 AM CST 6:16 PM CST
Astronomical Twilight 5:41 AM CST 6:48 PM CST
Moon 4:12 PM CST (11/15) 5:13 AM CST (11/15)
Length of Visible Light 10h 57m
Length of Day
10h 00m
Waxing Gibbous, 96% of the Moon is Illuminated
Nov 15
Waxing Gibbous
Nov 17
Full
Nov 25
Last Quarter
Dec 2
New
Dec 9
First Quarter

Hourly Weather History & Observations

Time (CST) Temp. Windchill Dew Point Humidity Pressure Visibility Wind Dir Wind Speed Gust Speed Precip Events Conditions
12:55 AM 39.0 °F 36.8 °F 30.0 °F 70% 29.91 in 10.0 mi SW 3.5 mph - N/A   Clear
1:55 AM 30.0 °F - 27.0 °F 88% 29.91 in 9.0 mi Calm Calm - N/A   Clear
2:55 AM 30.9 °F - 27.0 °F 85% 29.90 in 10.0 mi Calm Calm - N/A   Clear
3:55 AM 30.0 °F - 27.0 °F 88% 29.88 in 10.0 mi Calm Calm - N/A   Clear
4:55 AM 28.9 °F - 26.1 °F 89% 29.89 in 9.0 mi Calm Calm - N/A   Clear
5:55 AM 28.0 °F - 27.0 °F 96% 29.89 in 8.0 mi Calm Calm - N/A   Clear
6:55 AM 28.0 °F 22.8 °F 27.0 °F 96% 29.89 in 8.0 mi SSE 4.6 mph - N/A   Clear
7:55 AM 34.0 °F 25.0 °F 30.9 °F 89% 29.88 in 9.0 mi South 12.7 mph - N/A   Clear
8:55 AM 39.0 °F 29.3 °F 33.1 °F 79% 29.86 in 10.0 mi South 19.6 mph - N/A   Clear
9:55 AM 43.0 °F 36.8 °F 35.1 °F 74% 29.86 in 10.0 mi South 11.5 mph - N/A   Clear
10:55 AM 48.9 °F - 35.1 °F 59% 29.85 in 10.0 mi South 9.2 mph - N/A   Clear
11:55 AM 54.0 °F - 35.1 °F 49% 29.81 in 10.0 mi South 13.8 mph - N/A   Clear
12:55 PM 55.9 °F - 36.0 °F 47% 29.78 in 10.0 mi South 20.7 mph 24.2 mph N/A   Clear
1:55 PM 57.0 °F - 36.0 °F 45% 29.73 in 10.0 mi South 17.3 mph - N/A   Clear
2:55 PM 57.9 °F - 37.0 °F 46% 29.68 in 10.0 mi SSE 21.9 mph 26.5 mph N/A   Clear
3:55 PM 57.0 °F - 37.0 °F 47% 29.67 in 10.0 mi SSE 20.7 mph 26.5 mph N/A   Clear
4:55 PM 55.9 °F - 37.9 °F 51% 29.65 in 10.0 mi SSE 20.7 mph 25.3 mph N/A   Clear
5:55 PM 51.1 °F - 37.9 °F 61% 29.66 in 10.0 mi SSE 10.4 mph - N/A   Clear
6:55 PM 48.0 °F - 37.0 °F 66% 29.67 in 10.0 mi SE 5.8 mph - N/A   Clear
7:55 PM 48.0 °F - 37.9 °F 68% 29.65 in 10.0 mi SE 8.1 mph - N/A   Clear
8:55 PM 51.1 °F - 42.1 °F 71% 29.62 in 10.0 mi SSE 15.0 mph - N/A   Clear
9:55 PM 51.1 °F - 43.0 °F 74% 29.61 in 9.0 mi SSE 15.0 mph - N/A   Clear
10:55 PM 53.1 °F - 45.0 °F 74% 29.57 in 8.0 mi South 18.4 mph 29.9 mph N/A   Clear
11:55 PM 53.1 °F - 45.0 °F 74% 29.55 in 9.0 mi South 25.3 mph 32.2 mph N/A   Clear